EHI
15 16 17 21 24 20 16 15 14 10 7 6 6 4 3 2 1 0 1 2 1 1 1 1 0 0 0 0 0 1 1 1 1 0 0 0 0 0 0 0 1 2 4
17 19 21 25 28 27 22 20 17 12 9 8 6 4 3 2 1 0 1 2 2 1 0 0 0 0 0 0 1 2 1 1 1 1 0 0 0 0 0 0 0 1 2
20 22 27 31 34 35 31 26 21 16 13 10 8 6 4 2 0 0 1 3 3 2 1 0 0 0 1 2 2 2 2 1 2 1 0 0 0 0 0 0 0 0 1
24 26 30 34 37 38 37 32 27 23 18 15 12 9 6 3 1 1 3 5 5 4 2 1 1 1 2 3 3 2 2 2 2 3 1 1 0 0 0 0 0 0 0
28 29 32 36 39 39 39 37 34 30 26 21 16 13 10 6 3 3 5 6 6 5 4 3 3 2 2 4 4 3 2 2 3 4 3 2 1 1 0 0 0 0 0
30 32 34 37 39 39 38 38 37 34 31 26 20 16 14 10 6 5 6 7 8 7 6 6 5 4 4 5 6 5 3 3 3 4 4 4 3 2 1 0 0 0 0
31 35 38 39 39 39 38 39 37 34 32 29 24 20 18 15 10 7 7 9 9 9 8 8 7 7 9 10 9 7 6 6 5 6 6 4 3 2 1 0 0 0 0
30 34 37 38 38 38 39 41 39 35 32 30 27 25 22 18 13 9 9 9 10 10 9 10 10 10 14 16 14 11 10 9 8 8 7 5 3 1 0 0 0 0 1
27 29 31 33 35 37 40 42 41 38 35 34 32 30 27 21 15 11 10 9 9 9 9 9 10 12 16 20 19 16 13 10 7 7 7 6 4 2 1 0 0 1 2
24 25 27 30 33 36 39 41 40 40 39 38 35 32 30 25 20 16 13 11 9 8 8 9 10 12 16 20 20 18 14 9 6 5 6 5 5 3 1 1 1 2 3
23 25 28 31 34 36 38 38 38 38 40 38 35 33 31 27 23 19 16 13 11 10 9 10 11 13 17 19 19 18 16 12 7 5 5 5 5 3 3 2 3 3 3
24 26 29 32 32 34 36 35 35 37 39 37 34 32 31 27 22 20 18 16 14 12 11 12 14 16 17 19 19 19 19 16 10 6 5 5 4 3 3 3 4 3 3
25 26 28 29 29 29 30 33 35 37 37 35 32 30 29 26 22 20 19 17 16 15 14 15 17 19 19 19 19 20 20 18 12 8 7 5 5 4 3 4 5 4 4
24 24 25 25 23 22 24 29 33 33 33 31 29 28 27 25 22 20 17 16 17 16 14 13 15 17 19 20 21 21 20 17 12 10 8 7 7 6 5 4 5 6 6
22 22 22 20 18 18 20 23 26 28 29 27 25 27 28 27 23 19 16 15 16 15 12 10 10 13 16 17 19 20 19 16 13 11 10 10 10 9 5 3 4 6 7
23 23 22 21 18 17 19 20 21 23 26 26 24 25 29 29 26 22 19 18 16 14 11 8 9 11 11 11 12 14 16 15 14 12 11 11 10 8 4 2 3 4 4
25 25 24 22 20 18 18 19 19 21 24 25 24 23 24 26 24 22 20 19 16 14 10 8 9 9 7 5 5 6 8 10 11 12 12 10 8 5 3 2 2 1 1
21 22 21 20 19 17 16 15 15 16 18 20 20 18 18 19 20 19 18 16 14 12 9 8 8 7 5 4 3 2 2 4 6 8 10 9 6 3 3 3 2 1 0
16 17 17 17 17 15 14 13 11 10 11 13 15 15 15 16 18 17 16 15 13 11 10 9 8 7 6 4 3 1 0 1 1 3 6 7 5 3 3 3 3 2 1
13 14 16 18 17 16 15 12 10 8 8 8 9 11 14 16 17 15 14 13 13 11 10 9 8 7 6 5 3 1 0 0 0 1 3 4 4 2 2 2 3 3 2
10 11 13 16 17 16 14 11 8 6 6 5 5 7 9 12 13 13 11 11 11 10 10 8 7 6 6 5 2 0 0 0 0 1 2 2 1 1 0 1 2 2 2
9 10 11 12 12 12 11 8 5 4 4 3 3 4 6 8 9 10 10 10 10 9 9 9 8 7 7 5 3 1 0 0 1 2 3 2 0 0 0 0 1 1 2
10 9 8 8 8 8 7 6 4 3 4 4 3 3 4 5 6 6 8 9 9 9 9 9 9 8 7 6 4 1 0 0 1 2 2 1 0 0 0 0 0 1 2
9 7 6 6 6 6 6 5 4 4 5 5 3 1 2 2 2 3 5 6 7 7 6 7 9 9 7 6 6 4 2 1 1 1 1 0 0 0 0 0 0 2 3
6 5 4 4 5 5 5 4 3 3 4 4 2 1 1 1 0 0 1 2 3 3 3 5 7 7 5 5 6 5 4 2 2 1 1 1 1 1 1 2 2 2 3
4 4 4 4 4 4 3 2 2 3 4 3 2 1 2 2 1 0 0 0 1 1 1 2 4 4 3 2 3 3 3 2 2 2 2 2 2 3 4 4 4 3 3
Wind_Speed
10 10 11 11 10 8 7 7 7 6 4 3 2 2 2 2 1 2 4 4 3 3 3 2 1 1 1 1 1 1 0 1 1 1 2 3 2 2 2 3 2 4 5
9 10 10 11 11 10 9 8 7 7 6 4 3 3 2 2 2 2 3 4 4 3 3 3 2 2 1 0 1 0 0 1 0 1 1 2 4 3 2 2 3 3 3
14 12 11 11 11 11 11 9 8 7 6 5 3 1 1 1 0 1 2 3 4 4 3 3 3 2 2 2 2 1 2 1 1 1 2 1 2 3 3 3 2 2 2
12 12 12 12 12 11 10 9 8 7 6 6 4 4 3 3 3 3 3 3 4 4 4 3 3 3 2 3 2 2 2 2 1 1 1 2 3 1 3 3 3 2 3
14 14 14 13 11 11 10 8 8 7 6 6 6 5 4 3 2 2 3 3 3 3 4 4 3 3 3 3 3 2 2 2 2 2 1 0 1 2 2 3 4 3 2
12 11 11 10 9 9 9 8 8 7 7 7 6 6 6 5 3 3 3 3 2 2 3 3 3 4 3 4 4 3 3 2 2 2 2 1 1 2 2 2 3 3 3
11 11 11 10 10 10 10 9 9 8 7 7 7 6 6 6 6 5 5 4 3 3 4 4 3 4 4 4 3 3 3 2 2 2 2 2 2 2 2 2 2 2 3
9 11 12 11 11 12 11 10 10 8 8 8 7 6 6 4 4 4 4 4 4 4 4 4 4 5 4 4 3 3 3 3 3 3 3 2 2 2 2 2 2 1 2
8 9 9 9 9 10 11 11 10 9 9 8 7 6 6 5 5 4 4 3 3 4 4 4 4 5 5 5 4 3 3 3 3 4 3 2 2 2 2 2 3 3 2
7 7 7 7 6 7 7 8 9 9 8 7 6 6 6 6 5 4 4 4 4 4 4 4 4 4 4 4 4 3 3 3 3 3 3 3 2 2 2 2 2 2 3
8 7 6 6 5 5 5 5 7 7 7 7 7 5 5 5 4 4 5 5 4 4 4 4 4 4 4 4 4 4 4 4 4 4 3 4 3 2 2 1 1 1 2
6 6 6 6 5 4 4 4 5 6 7 7 6 6 5 5 5 5 5 4 5 5 5 4 4 5 5 4 5 5 5 5 5 5 4 4 3 3 3 2 2 2 2
6 6 5 5 5 4 4 3 3 5 5 6 6 5 5 5 5 6 5 5 5 4 4 4 5 5 5 5 5 5 6 6 6 5 5 5 4 4 3 3 2 2 1
6 6 5 4 4 4 4 3 3 3 4 5 5 6 6 6 6 6 5 5 5 5 5 5 5 5 5 5 5 5 5 5 5 5 6 6 5 5 4 3 3 2 1
5 6 5 4 3 3 3 2 2 3 3 4 5 6 6 5 4 4 4 4 4 5 5 4 4 4 4 5 5 5 6 5 5 5 5 6 6 6 5 3 3 2 2
5 6 6 6 5 4 4 3 2 2 2 3 4 4 4 4 4 4 4 4 4 4 3 4 4 5 5 6 7 6 5 5 5 6 5 6 5 5 5 5 5 5 4
5 4 5 5 5 4 4 3 3 2 2 2 2 3 4 4 4 4 3 4 4 4 4 4 4 5 5 6 6 7 5 5 5 6 5 5 4 5 3 3 3 3 5
4 3 3 3 3 3 3 3 2 2 2 1 2 3 3 4 3 3 3 3 3 3 4 4 4 4 5 5 5 5 5 4 5 5 6 6 5 4 4 3 2 2 3
3 3 3 3 3 2 3 3 2 2 1 1 1 3 3 3 3 4 4 3 3 3 4 3 3 4 5 5 5 5 2 3 5 5 5 5 5 7 6 4 3 2 3
2 2 2 3 3 2 2 3 1 1 1 2 2 2 2 3 4 4 4 3 3 4 4 4 4 5 5 5 5 4 2 3 3 3 4 6 7 7 7 6 5 4 4
3 3 3 2 1 1 3 2 1 1 2 1 1 1 2 2 3 4 3 3 4 4 4 4 4 4 5 5 6 5 3 4 3 3 3 3 6 8 8 7 6 7 5
3 3 3 1 1 2 3 2 0 2 1 1 1 2 2 2 2 2 3 3 3 4 4 3 4 4 4 4 6 7 7 5 4 4 3 3 5 6 7 6 6 6 4
2 1 2 1 1 1 2 1 2 1 0 0 1 2 3 2 2 2 3 3 3 3 4 3 4 4 3 3 6 7 8 7 4 3 4 4 5 4 4 6 6 5 3
1 1 2 1 1 1 0 1 2 1 1 1 2 2 2 3 2 2 2 3 3 4 4 4 4 4 3 2 2 3 3 4 3 2 2 2 3 2 2 2 2 3 3
0 1 1 1 1 1 2 2 2 1 1 2 2 3 3 3 3 3 3 4 4 4 5 5 4 4 4 5 6 4 3 2 2 2 1 1 1 1 1 1 1 2 2
1 1 0 0 1 2 2 3 2 1 1 2 3 2 2 2 2 2 3 4 4 5 6 6 5 4 5 5 5 6 5 4 4 3 2 2 3 3 3 3 2 2 2
Wind_Direction
180 170 166 165 163 164 164 164 160 167 159 155 159 157 184 199 201 201 199 203 202 195 185 198 217 200 179 214 222 209 315 301 290 8 328 319 304 273 243 240 235 228 224
170 172 168 168 170 169 172 171 172 172 173 174 171 169 170 190 199 209 206 206 201 199 195 191 203 200 182 224 229 150 23 303 333 131 52 344 335 320 275 257 232 238 236
178 177 172 172 172 176 179 181 182 176 175 170 150 139 98 45 326 225 218 216 200 198 198 193 197 201 182 201 220 195 178 240 287 161 145 150 258 300 309 293 269 254 234
179 178 176 176 178 183 180 178 176 173 173 167 165 174 185 201 217 210 212 226 215 211 203 196 195 198 193 205 220 194 188 180 247 282 211 192 185 198 303 310 298 275 239
181 182 180 178 178 177 176 177 173 177 177 176 180 186 201 212 216 208 211 225 234 229 217 198 193 199 201 207 212 208 200 190 197 216 230 234 220 186 189 282 307 314 285
178 180 178 173 173 174 177 176 174 183 184 183 185 191 198 203 202 211 215 223 232 239 233 213 203 205 206 209 210 207 208 207 203 208 201 189 209 225 201 237 271 286 286
171 170 170 173 174 175 179 178 179 188 188 186 190 195 197 197 204 209 210 210 218 226 233 226 214 214 211 206 198 200 214 213 208 213 213 207 212 206 193 202 252 272 285
174 174 176 176 179 180 182 181 185 193 192 192 198 199 196 198 207 205 201 208 212 221 225 222 221 220 212 209 195 202 215 211 216 229 222 222 228 206 194 193 193 269 296
167 174 173 176 180 182 186 189 188 192 195 196 196 198 197 200 206 208 208 217 222 227 222 221 223 221 212 207 197 207 220 220 224 233 233 231 240 225 218 205 185 181 238
147 155 164 173 182 182 183 189 189 193 192 191 197 203 205 207 206 202 214 221 225 229 222 224 224 223 219 216 206 210 216 217 235 236 240 248 245 241 233 220 206 188 190
150 155 158 159 155 153 167 176 186 189 188 190 197 202 201 205 203 209 220 224 226 225 225 227 224 220 218 218 214 223 224 228 242 246 236 246 243 240 241 232 216 203 180
143 152 153 144 142 146 156 180 185 188 193 188 186 199 201 200 203 217 226 227 229 230 227 225 224 223 221 217 216 224 228 226 235 242 240 247 246 240 240 226 229 225 203
123 124 125 132 148 160 169 176 179 192 187 181 185 200 210 208 213 223 226 224 229 236 233 224 223 227 225 220 223 226 231 230 231 231 233 242 236 239 238 226 231 232 224
135 130 136 146 158 165 172 171 193 191 183 183 191 206 216 220 220 222 226 227 225 230 234 231 227 224 225 223 227 230 234 237 234 227 229 232 226 230 230 228 228 221 219
134 137 150 161 161 159 171 180 200 194 185 188 205 220 224 221 215 217 222 227 225 231 232 231 238 234 231 234 227 228 233 233 233 232 232 233 227 229 225 222 208 196 200
142 147 152 153 158 169 177 176 191 194 183 195 218 227 223 214 209 212 215 219 224 228 223 229 239 241 244 246 234 223 233 231 230 232 236 237 232 234 227 225 210 193 197
131 131 151 160 164 171 169 169 180 174 173 211 228 217 209 208 213 214 211 214 216 217 227 233 238 244 249 254 246 233 225 224 224 228 229 238 232 214 209 222 228 234 230
132 135 141 157 171 168 164 165 148 143 162 202 222 216 208 208 208 212 218 218 212 217 228 237 239 242 253 253 255 247 230 231 233 227 223 222 224 216 193 194 214 245 255
145 151 146 140 142 151 161 143 137 138 148 203 228 227 214 212 209 217 228 227 220 235 240 235 237 243 257 249 243 234 226 234 242 238 228 212 217 225 203 185 204 240 268
112 113 98 94 116 150 137 121 126 135 234 248 250 262 235 223 223 223 226 231 225 234 245 244 242 240 247 249 236 219 218 236 249 252 243 226 218 219 206 191 193 216 239
108 103 86 79 98 122 105 99 91 238 249 249 274 306 260 239 237 231 224 226 230 233 235 241 249 245 242 241 229 216 212 230 236 242 247 242 226 219 216 205 202 215 213
101 106 98 69 43 87 101 90 319 267 291 344 349 333 308 278 274 247 250 248 241 243 246 248 260 255 243 231 228 219 221 224 220 230 236 241 234 224 216 212 217 212 197
102 108 115 85 9 53 116 125 261 254 231 302 295 296 304 296 284 258 259 271 260 251 252 241 246 259 253 244 239 232 235 234 227 235 237 237 226 219 219 220 210 192 185
108 105 98 72 342 335 342 224 249 245 196 246 275 281 286 292 295 277 247 243 245 247 246 240 238 245 246 238 234 238 242 244 244 263 251 230 216 208 210 206 206 201 194
93 113 127 147 290 313 305 296 293 291 287 279 279 283 281 281 287 285 267 252 243 234 234 235 222 219 236 236 215 206 215 210 203 171 149 147 163 196 208 220 219 218 215
72 52 41 273 281 292 300 301 299 284 279 290 283 275 276 276 270 276 298 303 277 277 259 245 234 235 232 230 220 217 221 211 179 156 177 199 204 208 205 203 210 213 222